Weather History for OTBD - July, 2013

Change the Weather History Date:

Wednesday, July 24, 2013

  Actual Average Record
Temperature  
Mean Temperature 102 °F -  
Max Temperature 113 °F 105 °F 116 °F (2004)
Min Temperature 90 °F 84 °F 86 °F (1997)
Cooling Degree Days 36    
Growing Degree Days 52 (Base 50)    
Moisture  
Dew Point 63 °F    
Average Humidity 30    
Maximum Humidity 49    
Minimum Humidity 15    
Precipitation  
Precipitation 0.00 in 0.00 in - ()
Sea Level Pressure  
Sea Level Pressure 29.43 in    
Wind  
Wind Speed 8 mph ()    
Max Wind Speed 20 mph    
Max Gust Speed 28 mph    
Visibility 5.9 miles    
Events      
Averages and records for this station are not official NWS values.
T = Trace of Precipitation, MM = Missing Value Source: Averaged Metar Reports

Daily Weather History Graph

Daily Weather History Graph

Search for Another Location

Airport or City:

Trip Planner

Search our weather history database for the weather conditions in past years. The results will help you decide how hot, cold, wet, or windy it might be!

Date:

Astronomy

Jul. 24, 2013 Rise Set
Actual Time 4:57 AM AST 6:23 PM AST
Civil Twilight 4:32 AM AST 6:48 PM AST
Nautical Twilight 4:02 AM AST 7:17 PM AST
Astronomical Twilight 3:31 AM AST 7:48 PM AST
Moon 7:35 PM AST (7/24) 6:32 AM AST (7/24)
Length of Visible Light 14h 16m
Length of Day
13h 26m
Waning Gibbous, 96% of the Moon is Illuminated
Jul 24
Waning Gibbous
Jul 29
Last Quarter
Aug 7
New
Aug 14
First Quarter
Aug 21
Full

Hourly Weather History & Observations

Time (AST) Temp. Heat Index Dew Point Humidity Pressure Visibility Wind Dir Wind Speed Gust Speed Precip Events Conditions
12:00 AM 98.6 °F 97.6 °F 57.2 °F 25% 29.44 in - NW 5.8 mph - N/A   Clear
12:30 AM 96.8 °F 98.0 °F 62.6 °F 32% 29.44 in - Variable 2.3 mph - N/A   Clear
1:00 AM 96.8 °F 97.1 °F 60.8 °F 30% 29.42 in - West 3.5 mph - N/A   Clear
1:30 AM 95.0 °F 96.0 °F 62.6 °F 34% 29.42 in - West 3.5 mph - N/A   Clear
2:00 AM 93.2 °F 96.2 °F 66.2 °F 41% 29.42 in - West 4.6 mph - N/A   Clear
2:30 AM 91.4 °F 96.8 °F 69.8 °F 49% 29.42 in - West 5.8 mph - N/A   Clear
3:00 AM 91.4 °F 96.8 °F 69.8 °F 49% 29.42 in - West 4.6 mph - N/A   Clear
3:30 AM 91.4 °F 95.4 °F 68.0 °F 46% 29.42 in - West 4.6 mph - N/A   Clear
4:00 AM 93.2 °F 94.9 °F 64.4 °F 38% 29.44 in - WNW 6.9 mph - N/A   Clear
4:30 AM 93.2 °F 97.7 °F 68.0 °F 44% 29.44 in - WSW 3.5 mph - N/A   Clear
5:00 AM 91.4 °F 96.8 °F 69.8 °F 49% 29.44 in - WSW 4.6 mph - N/A   Clear
5:30 AM 91.4 °F 96.8 °F 69.8 °F 49% 29.44 in - West 4.6 mph - N/A   Clear
6:00 AM 93.2 °F 100.5 °F 71.6 °F 49% 29.44 in - West 4.6 mph - N/A   Clear
6:30 AM 93.2 °F 98.8 °F 69.8 °F 46% 29.47 in - WSW 5.8 mph - N/A   Clear
7:00 AM 95.0 °F 99.5 °F 68.0 °F 41% 29.47 in - West 6.9 mph - N/A   Clear
8:00 AM 98.6 °F 102.8 °F 66.2 °F 35% 29.47 in - WNW 6.9 mph - N/A   Clear
8:30 AM 100.4 °F 102.4 °F 62.6 °F 29% 29.47 in - WNW 8.1 mph - N/A   Clear
9:00 AM 102 °F - 60 °F 17% 29.48 in 7 mi NW 11.5 mph - -   Clear
9:00 AM 102.2 °F 103.6 °F 60.8 °F 26% 29.47 in - NW 11.5 mph - N/A   Clear
9:30 AM 105.8 °F 106.8 °F 59.0 °F 22% 29.47 in - NW 11.5 mph - N/A   Clear
10:00 AM 107.6 °F 106.8 °F 55.4 °F 18% 29.47 in - NW 11.5 mph - N/A   Clear
11:00 AM 109.4 °F 107.9 °F 53.6 °F 16% 29.44 in - NNW 12.7 mph - N/A   Clear
12:00 PM 111.2 °F 109.6 °F 53.6 °F 15% 29.44 in - NNW 16.1 mph - N/A   Clear
12:30 PM 113.0 °F 112.0 °F 55.4 °F 15% 29.42 in - North 17.3 mph - N/A   Clear
1:00 PM 111.2 °F 110.4 °F 55.4 °F 16% 29.42 in - North 17.3 mph - N/A   Clear
1:30 PM 109.4 °F 117.7 °F 68.0 °F 27% 29.42 in - North 11.5 mph - N/A   Clear
2:00 PM 107.6 °F 117.0 °F 69.8 °F 30% 29.42 in - NNE 11.5 mph - N/A   Clear
2:30 PM 105.8 °F 116.1 °F 71.6 °F 33% 29.42 in - North 12.7 mph - N/A   Clear
3:00 PM 105 °F - 76 °F 31% 29.41 in 7 mi NNE 16.1 mph - -   Clear
3:00 PM 105.8 °F 121.3 °F 75.2 °F 38% 29.39 in - NNE 16.1 mph - N/A   Clear
3:30 PM 105.8 °F 119.1 °F 73.4 °F 36% 29.39 in - North 15.0 mph - N/A   Clear
4:00 PM 107.6 °F 115.0 °F 68.0 °F 28% 29.39 in - NNW 13.8 mph 27.6 mph N/A   Clear
4:30 PM 109.4 °F 109.4 °F 57.2 °F 18% 29.39 in - North 18.4 mph - N/A   Clear
5:00 PM 107.6 °F 108.2 °F 59.0 °F 20% 29.39 in 5.6 mi NNW 19.6 mph - N/A   Unknown
6:00 PM 105.8 °F 106.8 °F 59.0 °F 22% 29.42 in 5.0 mi NNW 16.1 mph - N/A   Unknown
6:30 PM 104.0 °F 103.4 °F 57.2 °F 21% 29.42 in 5.0 mi NNW 15.0 mph - N/A   Unknown
7:00 PM 102.2 °F 102.4 °F 59.0 °F 24% 29.42 in 5.6 mi NNW 13.8 mph - N/A   Unknown
7:30 PM 102.2 °F 102.4 °F 59.0 °F 24% 29.42 in - NNW 13.8 mph - N/A   Clear
8:00 PM 100.4 °F 99.7 °F 57.2 °F 24% 29.42 in - NNW 11.5 mph - N/A   Clear
8:30 PM 100.4 °F 101.3 °F 60.8 °F 27% 29.42 in - NNW 9.2 mph - N/A   Clear
9:00 PM 100 °F - 61 °F 18% 29.43 in 6 mi NNW 13.8 mph - -  
9:00 PM 100.4 °F 101.3 °F 60.8 °F 27% 29.42 in - NNW 13.8 mph - N/A   Clear
9:30 PM 100.4 °F 101.3 °F 60.8 °F 27% 29.42 in - NNW 8.1 mph - N/A   Clear
10:00 PM 100.4 °F 101.3 °F 60.8 °F 27% 29.42 in - NW 6.9 mph - N/A   Clear
10:30 PM 98.6 °F 99.4 °F 60.8 °F 29% 29.42 in - NW 8.1 mph - N/A   Clear
11:00 PM 98.6 °F 100.0 °F 62.6 °F 30% 29.42 in - WNW 8.1 mph - N/A   Clear